Date,TemperatureHighF,TemperatureAvgF,TemperatureLowF,DewpointHighF,DewpointAvgF,DewpointLowF,HumidityHigh,HumidityAvg,HumidityLow,PressureMaxIn,PressureMinIn,WindSpeedMaxMPH,WindSpeedAvgMPH,GustSpeedMaxMPH,PrecipitationSumIn
2013-3-1,28.8,26.8,24.3,27.0,22.7,19.3,93,84,76,29.86,29.70,9,3,13,0.00
2013-3-2,26.9,24.3,22.1,21.6,20.0,17.6,90,84,71,29.84,29.80,9,3,14,0.00
2013-3-3,26.2,22.4,20.1,21.5,18.7,16.4,90,86,76,29.89,29.81,11,3,12,0.00
2013-3-4,34.3,25.5,17.7,22.0,18.4,14.2,86,75,57,29.99,29.89,11,2,16,0.00
2013-3-5,39.5,29.2,17.8,24.8,19.2,13.5,87,68,39,29.97,29.52,19,5,25,0.02
2013-3-6,42.3,34.4,30.0,31.6,28.7,24.2,95,81,61,29.99,29.52,18,4,23,0.07
2013-3-7,40.4,33.2,29.5,31.8,28.5,26.0,92,83,61,30.17,29.98,11,2,17,0.00
2013-3-8,34.6,29.6,22.9,29.0,25.2,20.9,93,84,75,30.29,30.17,8,2,14,0.00
2013-3-9,53.0,36.5,21.9,33.8,27.3,20.2,95,72,42,30.29,30.00,11,2,13,0.00
2013-3-10,68.8,54.5,43.0,39.0,33.3,27.2,57,46,31,30.00,29.75,10,3,16,0.00
2013-3-11,58.0,53.3,44.1,47.9,38.1,32.8,92,59,42,29.75,29.45,13,4,19,0.51
2013-3-12,44.1,35.6,31.9,41.1,30.7,26.6,91,82,77,29.83,29.57,12,4,17,0.06
2013-3-13,32.1,28.6,25.0,27.8,23.7,18.0,94,82,65,30.00,29.76,18,5,22,0.00
2013-3-14,36.3,27.8,20.2,21.7,19.6,16.1,85,72,49,30.09,29.99,15,4,19,0.00
2013-3-15,44.2,35.0,26.2,35.5,27.8,20.5,92,75,65,29.99,29.69,15,3,17,0.04
2013-3-16,36.1,31.8,27.3,34.7,30.2,24.5,95,94,89,29.84,29.50,8,2,13,0.11
2013-3-17,32.4,28.7,26.3,25.7,23.5,20.3,91,81,67,30.06,29.84,9,1,10,0.00
2013-3-18,42.0,32.5,27.3,41.2,29.5,20.5,97,89,74,30.03,29.51,15,6,22,0.05
2013-3-19,43.1,31.7,26.6,42.3,25.2,18.2,97,77,65,29.81,29.53,19,7,25,0.02
2013-3-20,32.5,27.2,20.9,21.3,18.6,16.8,89,70,54,29.81,29.72,16,5,20,0.00
2013-3-21,26.1,21.1,13.5,21.8,14.6,8.1,89,76,61,29.78,29.72,14,4,19,0.00
2013-3-22,33.1,24.7,22.9,22.2,19.3,17.7,88,80,63,29.88,29.77,14,6,17,0.00
2013-3-23,43.2,30.9,18.6,26.6,22.5,16.2,92,72,48,29.91,29.85,9,1,12,0.00
2013-3-24,36.8,30.8,24.7,26.1,22.4,20.5,85,72,57,29.88,29.36,17,5,23,0.00
2013-3-25,37.6,32.0,29.8,35.5,30.3,26.1,95,94,71,29.64,29.28,16,4,26,0.23
2013-3-26,37.3,33.1,30.0,32.2,29.8,28.1,94,88,77,29.93,29.64,11,2,18,0.01
2013-3-27,40.3,34.6,30.7,30.3,28.9,26.0,94,80,58,30.02,29.92,15,4,22,0.03
2013-3-28,42.2,36.2,32.6,31.1,28.8,27.1,84,75,62,30.12,29.99,10,3,13,0.00
2013-3-29,49.6,38.9,28.5,31.3,26.9,21.7,88,65,38,30.12,30.02,10,2,15,0.00
2013-3-30,54.6,39.7,24.9,28.5,23.3,19.4,81,55,28,30.10,29.85,9,1,12,0.00
2013-3-31,48.3,43.8,38.8,44.0,35.3,23.8,91,73,51,29.85,29.53,8,2,15,0.05